| time (UTC) | temp F | wind direction | speed MPH | gust MPH | rain 1hr in | rain 24hr in | rain mn in | humidity % | barometer mb |
| 20260510194003 | 60 | 25 | 4.0 | 7.0 | 0.00 | 0.00 | 0.00 | 33 | 1021.6 |
| 20260510193005 | 61 | 318 | 7.0 | 8.0 | 0.00 | 0.00 | 0.00 | 33 | 1021.6 |
| 20260510192004 | 60 | 311 | 2.0 | 3.0 | 0.00 | 0.00 | 0.00 | 34 | 1021.6 |
| 20260510191019 | 60 | 354 | 4.0 | 5.0 | 0.00 | 0.00 | 0.00 | 35 | 1021.6 |
| 20260510190004 | 59 | 5 | 5.0 | 10.0 | 0.00 | 0.00 | 0.00 | 37 | 1021.6 |
| 20260510185004 | 60 | 342 | 5.0 | 13.0 | 0.00 | 0.00 | 0.00 | 36 | 1021.7 |
| 20260510184018 | 60 | 310 | 5.0 | 8.0 | 0.00 | 0.00 | 0.00 | 36 | 1021.6 |
| 20260510183004 | 59 | 285 | 3.0 | 7.0 | 0.00 | 0.00 | 0.00 | 36 | 1021.6 |
| 20260510182005 | 59 | 348 | 2.0 | 5.0 | 0.00 | 0.00 | 0.00 | 38 | 1021.7 |
| 20260510181003 | 59 | 326 | 4.0 | 10.0 | 0.00 | 0.00 | 0.00 | 38 | 1021.6 |
| 20260510180005 | 58 | 1 | 5.0 | 8.0 | 0.00 | 0.00 | 0.00 | 41 | 1021.7 |
| 20260510175003 | 58 | 23 | 2.0 | 5.0 | 0.00 | 0.00 | 0.00 | 39 | 1021.7 |
| 20260510174004 | 58 | 8 | 5.0 | 10.0 | 0.00 | 0.00 | 0.00 | 41 | 1021.8 |
| 20260510173004 | 57 | 350 | 4.0 | 8.0 | 0.00 | 0.00 | 0.00 | 42 | 1021.7 |
| 20260510172003 | 56 | 360 | 5.0 | 7.0 | 0.00 | 0.00 | 0.00 | 43 | 1021.8 |
| 20260510171003 | 56 | 360 | 6.0 | 12.0 | 0.00 | 0.00 | 0.00 | 44 | 1021.7 |
| 20260510170003 | 57 | 305 | 3.0 | 3.0 | 0.00 | 0.00 | 0.00 | 43 | 1021.5 |
| 20260510165004 | 57 | 355 | 3.0 | 4.0 | 0.00 | 0.00 | 0.00 | 41 | 1021.7 |
| 20260510164004 | 57 | 57 | 4.0 | 7.0 | 0.00 | 0.00 | 0.00 | 42 | 1021.6 |
| 20260510163004 | 56 | 347 | 3.0 | 8.0 | 0.00 | 0.00 | 0.00 | 44 | 1021.6 |
| 20260510162003 | 55 | 9 | 2.0 | 8.0 | 0.00 | 0.00 | 0.00 | 44 | 1021.5 |
| 20260510161003 | 55 | 3 | 3.0 | 7.0 | 0.00 | 0.00 | 0.00 | 45 | 1021.5 |
| 20260510160018 | 55 | 22 | 5.0 | 9.0 | 0.00 | 0.00 | 0.00 | 43 | 1021.4 |
| 20260510155003 | 55 | 5 | 3.0 | 3.0 | 0.00 | 0.00 | 0.00 | 46 | 1021.4 |
| 20260510154002 | 54 | 48 | 6.0 | 9.0 | 0.00 | 0.00 | 0.00 | 43 | 1021.4 |
| 20260510153004 | 54 | 17 | 6.0 | 9.0 | 0.00 | 0.00 | 0.00 | 44 | 1021.3 |
| 20260510152003 | 54 | 60 | 4.0 | 4.0 | 0.00 | 0.00 | 0.00 | 45 | 1021.1 |
| 20260510151002 | 54 | 31 | 6.0 | 9.0 | 0.00 | 0.00 | 0.00 | 45 | 1021.1 |
| 20260510150004 | 54 | 1 | 3.0 | 6.0 | 0.00 | 0.00 | 0.00 | 46 | 1021.0 |
| 20260510145002 | 53 | 38 | 5.0 | 6.0 | 0.00 | 0.00 | 0.00 | 46 | 1021.0 |
| 20260510144004 | 52 | 7 | 4.0 | 5.0 | 0.00 | 0.00 | 0.00 | 47 | 1020.9 |
| 20260510143003 | 52 | 4 | 3.0 | 6.0 | 0.00 | 0.00 | 0.00 | 47 | 1020.9 |
| 20260510142003 | 52 | 23 | 5.0 | 6.0 | 0.00 | 0.00 | 0.00 | 47 | 1020.9 |
| 20260510141003 | 52 | 26 | 4.0 | 6.0 | 0.00 | 0.00 | 0.00 | 48 | 1020.7 |
| 20260510140018 | 51 | 24 | 2.0 | 2.0 | 0.00 | 0.00 | 0.00 | 50 | 1020.6 |
| 20260510135004 | 51 | 45 | 4.0 | 5.0 | 0.00 | 0.00 | 0.00 | 50 | 1020.6 |
| 20260510134020 | 50 | 19 | 5.0 | 8.0 | 0.00 | 0.00 | 0.00 | 51 | 1020.5 |
| 20260510133004 | 49 | 56 | 4.0 | 5.0 | 0.00 | 0.00 | 0.00 | 54 | 1020.5 |
| 20260510132003 | 48 | 27 | 2.0 | 5.0 | 0.00 | 0.00 | 0.00 | 57 | 1020.4 |
| 20260510131004 | 47 | 25 | 1.0 | 2.0 | 0.00 | 0.00 | 0.00 | 59 | 1020.3 |
| 20260510130004 | 46 | 53 | 2.0 | 3.0 | 0.00 | 0.00 | 0.00 | 61 | 1020.3 |
| 20260510125003 | 45 | 11 | 3.0 | 4.0 | 0.00 | 0.00 | 0.00 | 63 | 1020.2 |
| 20260510124004 | 42 | 13 | 1.0 | 4.0 | 0.00 | 0.00 | 0.00 | 67 | 1020.1 |
| 20260510123003 | 42 | 13 | 0.0 | 1.0 | 0.00 | 0.00 | 0.00 | 67 | 1020.0 |
| 20260510122003 | 41 | 13 | 1.0 | 3.0 | 0.00 | 0.00 | 0.00 | 68 | 1019.9 |
| 20260510121020 | 39 | 350 | 0.0 | 0.0 | 0.00 | 0.00 | 0.00 | 71 | 1019.6 |
| 20260510120002 | 39 | 350 | 0.0 | 0.0 | 0.00 | 0.00 | 0.00 | 72 | 1019.5 |
| 20260510115003 | 39 | 350 | 0.0 | 0.0 | 0.00 | 0.00 | 0.00 | 72 | 1019.4 |
| 20260510114019 | 38 | 350 | 0.0 | 0.0 | 0.00 | 0.00 | 0.00 | 71 | 1019.4 |
| 20260510113004 | 38 | 350 | 0.0 | 0.0 | 0.00 | 0.00 | 0.00 | 71 | 1019.2 |
| 20260510112003 | 38 | 350 | 0.0 | 0.0 | 0.00 | 0.00 | 0.00 | 71 | 1019.0 |
| 20260510111003 | 38 | 350 | 0.0 | 0.0 | 0.00 | 0.00 | 0.00 | 70 | 1019.0 |
| 20260510110003 | 39 | 350 | 0.0 | 0.0 | 0.00 | 0.00 | 0.00 | 68 | 1018.9 |
| 20260510105003 | 39 | 350 | 0.0 | 0.0 | 0.00 | 0.00 | 0.00 | 67 | 1018.8 |
| 20260510104004 | 40 | 350 | 0.0 | 0.0 | 0.00 | 0.00 | 0.00 | 66 | 1018.6 |
| 20260510103003 | 39 | 350 | 0.0 | 0.0 | 0.00 | 0.00 | 0.00 | 66 | 1018.7 |
| 20260510102003 | 39 | 350 | 2.0 | 3.0 | 0.00 | 0.00 | 0.00 | 67 | 1018.7 |
| 20260510101020 | 39 | 350 | 0.0 | 0.0 | 0.00 | 0.00 | 0.00 | 67 | 1018.4 |
| 20260510100004 | 39 | 350 | 0.0 | 0.0 | 0.00 | 0.00 | 0.00 | 66 | 1018.2 |
| 20260510095006 | 40 | 350 | 0.0 | 0.0 | 0.00 | 0.00 | 0.00 | 65 | 1018.2 |
| 20260510094004 | 40 | 350 | 0.0 | 0.0 | 0.00 | 0.00 | 0.00 | 64 | 1018.0 |
| 20260510093005 | 40 | 350 | 0.0 | 0.0 | 0.00 | 0.00 | 0.00 | 64 | 1017.9 |
| 20260510092003 | 40 | 350 | 0.0 | 0.0 | 0.00 | 0.02 | 0.00 | 64 | 1017.9 |
| 20260510091004 | 40 | 350 | 0.0 | 1.0 | 0.00 | 0.02 | 0.00 | 64 | 1017.8 |
| 20260510090003 | 41 | 350 | 0.0 | 1.0 | 0.00 | 0.02 | 0.00 | 65 | 1017.8 |
| 20260510085004 | 41 | 350 | 0.0 | 0.0 | 0.00 | 0.02 | 0.00 | 66 | 1017.9 |
| 20260510084004 | 41 | 350 | 0.0 | 0.0 | 0.00 | 0.02 | 0.00 | 66 | 1018.0 |
| 20260510083004 | 42 | 350 | 0.0 | 0.0 | 0.00 | 0.02 | 0.00 | 66 | 1017.9 |
| 20260510082005 | 42 | 350 | 0.0 | 2.0 | 0.00 | 0.02 | 0.00 | 65 | 1017.9 |
| 20260510081004 | 43 | 350 | 0.0 | 0.0 | 0.00 | 0.02 | 0.00 | 61 | 1017.9 |
| 20260510080004 | 43 | 350 | 0.0 | 0.0 | 0.00 | 0.02 | 0.00 | 62 | 1018.0 |
| 20260510075004 | 43 | 350 | 0.0 | 0.0 | 0.00 | 0.02 | 0.00 | 63 | 1017.9 |
| 20260510074003 | 43 | 350 | 0.0 | 1.0 | 0.00 | 0.02 | 0.00 | 62 | 1017.8 |
| 20260510073003 | 43 | 350 | 0.0 | 1.0 | 0.00 | 0.02 | 0.00 | 61 | 1017.7 |
| 20260510072004 | 42 | 350 | 0.0 | 1.0 | 0.00 | 0.02 | 0.00 | 62 | 1017.6 |
| 20260510071004 | 43 | 350 | 0.0 | 0.0 | 0.00 | 0.02 | 0.00 | 60 | 1017.5 |
| 20260510070004 | 43 | 350 | 0.0 | 0.0 | 0.00 | 0.02 | 0.00 | 58 | 1017.4 |
| 20260510065004 | 43 | 350 | 0.0 | 0.0 | 0.00 | 0.02 | 0.00 | 59 | 1017.4 |
| 20260510064004 | 44 | 350 | 0.0 | 0.0 | 0.00 | 0.02 | 0.00 | 59 | 1017.2 |
| 20260510063003 | 44 | 350 | 1.0 | 2.0 | 0.00 | 0.02 | 0.00 | 58 | 1017.1 |
| 20260510062004 | 44 | 350 | 0.0 | 1.0 | 0.00 | 0.02 | 0.00 | 61 | 1017.1 |
| 20260510061004 | 44 | 350 | 0.0 | 0.0 | 0.00 | 0.02 | 0.00 | 61 | 1017.1 |
| 20260510060005 | 44 | 350 | 0.0 | 2.0 | 0.00 | 0.02 | 0.00 | 58 | 1017.1 |
| 20260510055005 | 44 | 350 | 0.0 | 0.0 | 0.00 | 0.02 | 0.00 | 59 | 1017.1 |
| 20260510054004 | 44 | 350 | 0.0 | 0.0 | 0.00 | 0.02 | 0.00 | 60 | 1017.0 |
| 20260510053005 | 45 | 350 | 0.0 | 0.0 | 0.00 | 0.02 | 0.00 | 60 | 1017.0 |
| 20260510052003 | 45 | 350 | 0.0 | 0.0 | 0.00 | 0.02 | 0.00 | 61 | 1016.9 |
| 20260510051005 | 45 | 350 | 0.0 | 0.0 | 0.00 | 0.02 | 0.00 | 61 | 1017.0 |
| 20260510050006 | 45 | 350 | 0.0 | 0.0 | 0.00 | 0.02 | 0.00 | 57 | 1016.9 |
| 20260510045003 | 46 | 350 | 0.0 | 0.0 | 0.00 | 0.02 | 0.02 | 55 | 1016.9 |
| 20260510044020 | 46 | 350 | 0.0 | 0.0 | 0.00 | 0.02 | 0.02 | 54 | 1016.8 |
| 20260510043004 | 46 | 350 | 0.0 | 0.0 | 0.00 | 0.02 | 0.02 | 53 | 1016.9 |
| 20260510042003 | 47 | 350 | 0.0 | 0.0 | 0.00 | 0.02 | 0.02 | 51 | 1016.9 |
| 20260510041004 | 48 | 350 | 0.0 | 0.0 | 0.00 | 0.02 | 0.02 | 48 | 1016.8 |
| 20260510040005 | 48 | 350 | 0.0 | 0.0 | 0.00 | 0.02 | 0.02 | 47 | 1016.7 |
| 20260510035003 | 49 | 350 | 0.0 | 0.0 | 0.00 | 0.02 | 0.02 | 45 | 1016.7 |
| 20260510034020 | 50 | 350 | 0.0 | 0.0 | 0.00 | 0.02 | 0.02 | 44 | 1016.8 |
| 20260510033003 | 50 | 350 | 0.0 | 3.0 | 0.00 | 0.02 | 0.02 | 43 | 1016.7 |
| 20260510032005 | 50 | 350 | 0.0 | 0.0 | 0.00 | 0.02 | 0.02 | 43 | 1016.7 |
| 20260510031003 | 51 | 350 | 0.0 | 1.0 | 0.00 | 0.02 | 0.02 | 42 | 1016.7 |
| 20260510030004 | 51 | 350 | 0.0 | 2.0 | 0.00 | 0.02 | 0.02 | 42 | 1016.5 |
| 20260510025003 | 52 | 355 | 1.0 | 2.0 | 0.00 | 0.02 | 0.02 | 41 | 1016.4 |
| 20260510024003 | 52 | 355 | 0.0 | 2.0 | 0.00 | 0.02 | 0.02 | 41 | 1016.2 |
| 20260510023003 | 53 | 355 | 1.0 | 1.0 | 0.00 | 0.02 | 0.02 | 40 | 1016.1 |
| 20260510022003 | 53 | 355 | 1.0 | 3.0 | 0.00 | 0.02 | 0.02 | 40 | 1015.8 |
| 20260510021003 | 54 | 360 | 2.0 | 2.0 | 0.00 | 0.02 | 0.02 | 39 | 1015.7 |
| 20260510020005 | 54 | 5 | 2.0 | 5.0 | 0.00 | 0.02 | 0.02 | 38 | 1015.4 |
| 20260510015003 | 55 | 5 | 2.0 | 3.0 | 0.00 | 0.02 | 0.02 | 37 | 1015.3 |
| 20260510014004 | 55 | 5 | 2.0 | 5.0 | 0.00 | 0.02 | 0.02 | 37 | 1015.1 |
| 20260510013002 | 56 | 350 | 2.0 | 3.0 | 0.00 | 0.02 | 0.02 | 36 | 1014.9 |
| 20260510012003 | 56 | 18 | 2.0 | 3.0 | 0.00 | 0.02 | 0.02 | 36 | 1014.7 |
| 20260510011003 | 56 | 335 | 4.0 | 8.0 | 0.00 | 0.02 | 0.02 | 35 | 1014.7 |
| 20260510010004 | 57 | 13 | 2.0 | 10.0 | 0.00 | 0.02 | 0.02 | 35 | 1014.6 |
| 20260510005003 | 57 | 347 | 4.0 | 10.0 | 0.00 | 0.02 | 0.02 | 34 | 1014.5 |
| 20260510004020 | 57 | 339 | 5.0 | 6.0 | 0.00 | 0.02 | 0.02 | 34 | 1014.3 |
| 20260510003004 | 58 | 342 | 7.0 | 12.0 | 0.00 | 0.02 | 0.02 | 33 | 1014.1 |
| 20260510002003 | 58 | 354 | 5.0 | 4.0 | 0.00 | 0.02 | 0.02 | 33 | 1014.1 |
| 20260510001004 | 58 | 346 | 4.0 | 7.0 | 0.00 | 0.02 | 0.02 | 34 | 1014.1 |
| 20260510000003 | 59 | 353 | 6.0 | 9.0 | 0.00 | 0.02 | 0.02 | 33 | 1013.9 |
| 20260509235004 | 59 | 351 | 3.0 | 6.0 | 0.00 | 0.02 | 0.02 | 33 | 1013.9 |
| 20260509234003 | 59 | 304 | 3.0 | 4.0 | 0.00 | 0.02 | 0.02 | 34 | 1013.8 |
| 20260509233003 | 59 | 304 | 4.0 | 3.0 | 0.00 | 0.02 | 0.02 | 34 | 1013.7 |
| 20260509232003 | 59 | 321 | 4.0 | 10.0 | 0.00 | 0.02 | 0.02 | 33 | 1013.6 |
| 20260509231003 | 59 | 319 | 5.0 | 11.0 | 0.00 | 0.02 | 0.02 | 33 | 1013.6 |
| 20260509230004 | 60 | 335 | 5.0 | 5.0 | 0.00 | 0.02 | 0.02 | 33 | 1013.5 |
| 20260509225004 | 60 | 4 | 2.0 | 6.0 | 0.00 | 0.02 | 0.02 | 33 | 1013.5 |
| 20260509224005 | 60 | 335 | 5.0 | 7.0 | 0.00 | 0.02 | 0.02 | 32 | 1013.4 |
| 20260509223004 | 60 | 340 | 7.0 | 13.0 | 0.00 | 0.02 | 0.02 | 32 | 1013.3 |
| 20260509222004 | 61 | 341 | 5.0 | 12.0 | 0.00 | 0.02 | 0.02 | 32 | 1013.2 |
| 20260509221019 | 60 | 346 | 6.0 | 10.0 | 0.00 | 0.02 | 0.02 | 33 | 1013.3 |
| 20260509220004 | 60 | 327 | 3.0 | 4.0 | 0.00 | 0.02 | 0.02 | 33 | 1013.2 |
| 20260509215004 | 60 | 343 | 5.0 | 6.0 | 0.00 | 0.02 | 0.02 | 33 | 1013.1 |
| 20260509214005 | 60 | 338 | 6.0 | 11.0 | 0.00 | 0.02 | 0.02 | 33 | 1013.2 |
| 20260509213003 | 59 | 316 | 8.0 | 10.0 | 0.00 | 0.02 | 0.02 | 35 | 1013.1 |
| 20260509212003 | 60 | 350 | 8.0 | 10.0 | 0.00 | 0.02 | 0.02 | 33 | 1013.2 |
| 20260509211003 | 60 | 325 | 8.0 | 13.0 | 0.00 | 0.02 | 0.02 | 33 | 1013.2 |
| 20260509210003 | 60 | 316 | 4.0 | 6.0 | 0.00 | 0.02 | 0.02 | 34 | 1013.1 |
| 20260509205003 | 60 | 8 | 7.0 | 16.0 | 0.00 | 0.02 | 0.02 | 34 | 1013.0 |
| 20260509204004 | 59 | 310 | 4.0 | 8.0 | 0.00 | 0.02 | 0.02 | 33 | 1013.1 |
| 20260509203003 | 59 | 351 | 8.0 | 18.0 | 0.00 | 0.02 | 0.02 | 32 | 1013.1 |
| 20260509202003 | 59 | 336 | 7.0 | 15.0 | 0.00 | 0.02 | 0.02 | 34 | 1013.0 |
| 20260509201004 | 59 | 326 | 7.0 | 10.0 | 0.00 | 0.02 | 0.02 | 34 | 1013.1 |
| 20260509200004 | 59 | 19 | 6.0 | 13.0 | 0.00 | 0.02 | 0.02 | 35 | 1012.9 |
| 20260509195003 | 59 | 357 | 4.0 | 4.0 | 0.00 | 0.02 | 0.02 | 39 | 1013.0 |